THORAD AGENA D DEB, 4216

Orbit data source: Space-Track

THORAD AGENA D DEB, 4216 is space debris in LEO originally from a launch on Tue, 30 Sep 1969 UTC launched from the Air Force Western Test Range (AFWTR). Debris objects in space refer to the collection of defunct objects orbiting the Earth. Examples of debris include non-operational satellites, rocket bodies, and fragments generated from explosions, collisions, or faulty payload assembly.

Loading next visibility...
Identifier
4216, 1969-082CF
Orbit
LEO
Country
Flag of USUS
Related business
Manufacturer
Unknown
Mission
Spacecraft
Bus & Motor
Unknown
Mass
Unknown
Launch date (UTC)
1969-09-30 (57 years ago)
Launch vehicle
Unknown
Launch site
Air Force Western Test Range (AFWTR)
Object type
Payload
Rocket body
Debris
Shape & HBR
Unknown shape, 1.7 m
Radar Cross Section
Large (>1 m²)

Expand to show TLE details & history
Last TLE update: 3 days ago

TLE from 3 days ago
0 THORAD AGENA D DEB
1  4216U 69082CF  26171.31726250  .00000188  00000-0  10372-3 0  9994
2  4216  70.1068  33.3866 0045546 129.6784 230.8369 14.24760545161802
Epoch: 2026-06-20T07:36Z
TLE epoch observation values (Epoch: 2026-06-20T07:36:51.479Z)
Latitude
0.00005°
Longitude
10.6385°
Altitude
832.415 km
Speed
7.426 km/s
True Right ascension
02h 13m 32s
True Declination
0° 00' 00"
Sunlit
Object was in daylight at epoch
Visualization orbit readout
Latitude
Unknown
Longitude
Unknown
Altitude
Unknown
Speed
Unknown
Apparent Right ascension
Unknown
Apparent Declination
Unknown
Sunlit
N/A
Visualization observer readout
Local Sidereal Time
12:50:01
Azimuth
Unknown
Elevation
Unknown
Doppler factor
Unknown
Orbital elements
Apogee altitude
840.03 km
Perigee altitude
774.576 km
Semi-major axis
7,185.44 km
Eccentricity
0.00455
Inclination
70.1068°
RAAN
33.3866°
Arg. of periapsis
129.6784°
True anomaly
230.43368°
Mean anomaly
230.8369°
Eccentric anomaly
230.63515°
Mean motion
3.56339 °/min
Orbital period
101.03 mins
BSTAR
0.00010372

Documentation

Showing up to 5 results
|